Voltar ao catálogo

STARLINK-32192

AtivoComunicaçõesVLEO
NORAD 60316·PAYLOAD·🇺🇸 United States

Lançado Jul 28, 2024 de Vandenberg Space Force Base

Loading…

Próximas Passagens (próximas 24 horas)

TLE

AtualizadoSource: CelesTrak SupGP

Época: Sep 14, 2026, 21:12 UTC

1 60316C 24133R   26257.88381944 -.00038110  00000+0 -11260-2 0  2579
2 60316  53.1561 135.6523 0001193  98.3349 268.2976 15.34408691    16

Acompanhe STARLINK-32192 em tempo real com AllMySat

Download on the App Store